Regional Weather Roundup
Issued by NWS

Home | Current Version | Previous Version | Text Only | Print | Product List | Glossary On
Versions: 1 2 3 4 5 6 7 8 9 10 11 12 13 14 15 16 17 18 19 20 21 22 23 24 25 26 27 28 29 30 31 32 33 34 35 36 37 38 39 40 41 42 43 44 45 46 47 48 49 50
000
ASUS43 KLOT 251609
RWRIL

ILLINOIS REGIONAL WEATHER ROUNDUP
NATIONAL WEATHER SERVICE CHICAGO/ROMEOVILLE IL
1100 AM CDT SUN OCT 25 2020

NOTE: "FAIR" INDICATES FEW OR NO CLOUDS BELOW 12,000 FEET WITH NO
SIGNIFICANT WEATHER AND/OR OBSTRUCTIONS TO VISIBILITY.

* THESE STATIONS ARE NOT UNDER NWS QUALITY CONTROL. THEY ALSO MAY NOT
  REPORT WEATHER SUCH AS PRECIPITATION OR FOG.

ILZ001-002-007-009-015-016-024-251700-
NORTHWEST ILLINOIS

CITY           SKY/WX    TMP DP  RH WIND       PRES   REMARKS
MOLINE         CLOUDY    40  30  67 NE9       30.21F
STERLING*      CLOUDY    40  32  73 NE13      30.22F
SAVANNA*       CLOUDY    37  28  70 N8        30.24S WCI  31
$$

ILZ003-004-008-010-011-017-018-251700-
NORTH CENTRAL ILLINOIS

CITY           SKY/WX    TMP DP  RH WIND       PRES   REMARKS
ROCKFORD       CLOUDY    40  28  62 NE12      30.25F
FREEPORT*      CLOUDY    36  25  65 NE10      30.25F WCI  28
ROCHELLE*      CLOUDY    38  32  78 NE15      30.22F WCI  30
DE KALB*       CLOUDY    39  33  77 NE10      30.22F WCI  32
PERU*          CLOUDY    43  36  76 NE14      30.19F
$$

ILZ005-006-012>014-019>023-251700-
NORTHEAST ILLINOIS

CITY           SKY/WX    TMP DP  RH WIND       PRES   REMARKS
CHICAGO-OHARE  CLOUDY    46  36  68 NE8       30.20F
CHICAGO-MIDWAY CLOUDY    47  36  65 E13       30.21S
AURORA         CLOUDY    42  35  76 NE16      30.20F
JOLIET*        CLOUDY    46  38  74 N6        30.20F
WAUKEGAN       CLOUDY    43  36  76 N9G17     30.22F
DUPAGE AIRPORT CLOUDY    43  35  73 N10       30.20F
KANKAKEE*      CLOUDY    46  36  66 E14       30.19F
WHEELING       CLOUDY    47  34  60 NE8       30.23F
MORRIS*        CLOUDY    45  37  73 NE5       30.19F
ROMEOVILLE*    CLOUDY    45  38  77 NE8       30.19F
LANSING*       CLOUDY    45  33  63 E6        30.21S
NORTHERLY ISL*   N/A     46  37  71 E14         N/A
$$

LMZ740>746-251700-
SOUTHERN LAKE MICHIGAN

STATION/POSITION SKY/WX   TEMP    WIND        PRES    VSBY  WAVE
                          AIR SEA DIR/SP/G                  HT/PER
                          (F)     (DEG/KT/KT) (MB)    (MI)  (FT/S)
SOUTHERN BUOY              44 53   50/ 12/ 14 1024.9F         2/ 5
WINTHROP HARBOR            44 47   60/ 10/ 17   N/A           3/ 4
HARRISON CRIB              45      90/ 16/ 18   N/A
NORTHERLY ISL              46      70/ 11/ 16   N/A
CALUMET HARBOR             45      60/  9/ 12 1022.8
$$

ILZ025>027-034>036-040-047-049-050-058-095>099-251700-
WEST-CENTRAL ILLINOIS

CITY           SKY/WX    TMP DP  RH WIND       PRES   REMARKS
QUINCY         CLOUDY    42  34  73 NE10      30.15S
GALESBURG*     CLOUDY    38  31  74 NE13      30.20S WCI  30
MACOMB*        CLOUDY    41  33  74 NE14      30.19F
JACKSONVILLE*  CLOUDY    44  36  72 NE13      30.13F
PITTSFIELD*    CLOUDY    44  37  75 NE10      30.14F
$$

ILZ028>032-037-038-041>044-048-051>054-059>061-251700-
CENTRAL ILLINOIS

CITY           SKY/WX    TMP DP  RH WIND       PRES   REMARKS
PONTIAC        CLOUDY    46  34  62 E13       30.18F
BLOOMINGTON    CLOUDY    45  36  70 NE18      30.15F
DECATUR        CLOUDY    46  39  76 E15       30.12F
PEORIA         CLOUDY    44  34  67 NE8       30.17F
LACON*         CLOUDY    42  34  74 NE7       30.18F
LINCOLN*       CLOUDY    46  34  61 NE10G16   30.14F
SPRINGFIELD    CLOUDY    46  37  71 NE14      30.14S
TAYLORVILLE    CLOUDY    46  36  69 NE8       30.12F
$$

ILZ033-039-045-046-055>057-062-063-251700-
EAST-CENTRAL ILLINOIS

CITY           SKY/WX    TMP DP  RH WIND       PRES   REMARKS
CHAMPAIGN      CLOUDY    47  37  68 NE10      30.13F
DANVILLE*      CLOUDY    47  37  66 E8        30.15S
RANTOUL*       CLOUDY    45  37  71 E14G20    30.14S
MATTOON        CLOUDY    47  38  71 E13       30.11S
PARIS*         CLOUDY    49  38  66 MISG      30.13R
$$

ILZ079-100>102-251700-
SOUTHWEST ILLINOIS

CITY           SKY/WX    TMP DP  RH WIND       PRES   REMARKS
ALTON          CLOUDY    46  41  81 N7        30.11F
BELLEVILLE     CLOUDY    49  40  72 NE7       30.07F
CAHOKIA*       CLOUDY    48  39  71 NE7       30.10F
SPARTA*        CLOUDY    48  39  71 NE7       30.08F
$$

ILZ064>066-069>071-074>076-080>082-084>086-088>090-092>094-251700-
SOUTH-CENTRAL ILLINOIS

CITY           SKY/WX    TMP DP  RH WIND       PRES   REMARKS
CARBONDALE     CLOUDY    52  40  63 N7        30.07F
CAIRO*         CLOUDY    52  45  75 MISG      30.06S
EFFINGHAM*     CLOUDY    48  38  67 NE8       30.11F
MARION         CLOUDY    52  43  71 E6        30.07F
MT. VERNON     CLOUDY    50  41  71 E9        30.08F
CENTRALIA*     CLOUDY    50  39  67 NE7       30.08F
SALEM*         CLOUDY    50  39  65 CALM      30.09F
$$

ILZ067-068-072-073-078-083-087-091-251700-
SOUTHEAST ILLINOIS

CITY           SKY/WX    TMP DP  RH WIND       PRES   REMARKS
LAWRENCEVILLE  CLOUDY    47  44  90 NE9       30.10F
FLORA*         CLOUDY    48  39  71 E7        30.10S
FAIRFIELD*     CLOUDY    47  42  80 NE3       30.08F
HARRISBURG*    CLOUDY    51  40  68 E7        30.08S
ROBINSON*      CLOUDY    47  40  75 E8        30.11F
CARMI*         CLOUDY    50  43  76 NE6       30.07F
$$

ABBREVIATIONS USED IN REMARKS
   TC - TEMPERATURE IN CELSIUS
  WCI - WIND CHILL INDEX
   HX - HEAT INDEX
  VSB - VISIBILITY
$$




USA.gov is the U.S. government's official web portal to all federal, state and local government web resources and services.